DW4129 Weather Reports


time (UTC)temp
C
wind
direction
speed
KPH
gust
KPH
rain 1hr
cm
rain 24hr
cm
rain mn
cm
humidity
%
barometer
mb
20260508044605 10 0 0.0 0.0 0.00 1.75 0.00 95 1013.8
20260508044056 9 0 0.0 0.0 0.00 1.75 0.00 95 1013.6
20260508043555 10 0 0.0 0.0 0.00 1.75 0.00 95 1013.5
20260508043057 10 0 0.0 0.0 0.00 1.75 0.00 95 1013.3
20260508042555 10 0 0.0 0.0 0.00 1.75 0.00 95 1013.3
20260508042057 10 0 0.0 0.0 0.00 1.75 0.00 95 1013.3
20260508041600 10 0 0.0 0.0 0.00 1.75 0.00 95 1013.3
20260508041058 10 0 0.0 0.0 0.00 1.75 0.00 95 1013.2
20260508040556 10 0 0.0 0.0 0.00 1.75 0.00 95 1013.1
20260508040059 10 0 0.0 0.0 0.00 1.75 0.00 95 1013.2
20260508035556 10 0 0.0 3.2 0.00 1.85 1.75 94 1013.2
20260508035056 10 0 0.0 3.2 0.00 1.85 1.75 94 1013.2
20260508034602 10 0 0.0 3.2 0.00 1.85 1.75 94 1013.2
20260508034056 10 259 0.0 3.2 0.00 1.85 1.75 95 1013.1
20260508033556 10 0 0.0 0.0 0.00 1.85 1.75 95 1013.0
20260508033054 10 0 0.0 0.0 0.00 1.85 1.75 94 1013.0
20260508032558 10 0 0.0 0.0 0.00 1.85 1.75 94 1013.0
20260508032056 11 0 0.0 0.0 0.00 1.85 1.75 94 1013.0
20260508031602 11 0 0.0 3.2 0.00 1.85 1.75 94 1013.1
20260508031059 11 0 0.0 3.2 0.00 1.85 1.75 94 1013.1
20260508030638 11 219 1.6 3.2 0.00 1.85 1.75 94 1013.1
20260508030112 11 246 0.0 3.2 0.00 1.85 1.75 94 1013.1
20260508025557 11 246 0.0 3.2 0.00 1.91 1.75 94 1013.0
20260508025054 11 221 1.6 1.6 0.00 1.91 1.75 94 1013.0
20260508024606 11 189 0.0 3.2 0.00 1.91 1.75 94 1013.0
20260508024057 11 189 0.0 3.2 0.00 1.91 1.75 94 1012.7
20260508023558 11 174 0.0 3.2 0.00 1.91 1.75 94 1012.5
20260508023057 11 174 0.0 0.0 0.00 1.91 1.75 94 1012.6
20260508022556 11 0 0.0 3.2 0.00 1.91 1.75 94 1012.7
20260508022056 11 0 0.0 3.2 0.00 1.91 1.75 94 1012.7
20260508021615 11 174 0.0 3.2 0.00 1.91 1.75 94 1012.5
20260508021059 11 0 0.0 3.2 0.00 1.91 1.75 94 1012.5
20260508020556 11 0 0.0 3.2 0.00 1.91 1.75 94 1012.5
20260508020057 11 0 0.0 3.2 0.00 1.91 1.75 94 1012.4
20260508015559 11 107 0.0 3.2 0.00 1.91 1.75 94 1012.3
20260508015057 11 0 0.0 3.2 0.00 1.91 1.75 94 1012.2
20260508014559 11 0 0.0 3.2 0.00 1.91 1.75 94 1012.0
20260508014057 11 0 0.0 3.2 0.00 1.91 1.75 94 1011.9
20260508013556 11 107 1.6 3.2 0.00 1.91 1.75 94 1011.7
20260508013106 11 107 0.0 3.2 0.00 1.91 1.75 94 1011.6
20260508012556 11 107 1.6 1.6 0.00 1.91 1.75 94 1011.6
20260508012057 12 107 1.6 3.2 0.00 1.91 1.75 94 1011.5
20260508011600 12 74 1.6 3.2 0.00 1.91 1.75 93 1011.5
20260508011058 12 69 1.6 3.2 0.00 1.91 1.75 93 1011.5
20260508010556 12 45 0.0 3.2 0.00 1.91 1.75 94 1011.5
20260508010056 12 45 0.0 3.2 0.00 1.91 1.75 94 1011.5
20260508005559 12 0 0.0 3.2 0.00 1.91 1.75 93 1011.6
20260508005100 12 0 0.0 3.2 0.00 1.91 1.75 93 1011.6
20260508004559 12 17 0.0 1.6 0.00 1.91 1.75 93 1011.8
20260508004056 12 46 0.0 3.2 0.00 1.91 1.75 93 1011.6
20260508003555 12 0 0.0 3.2 0.00 1.91 1.75 93 1011.7
20260508003105 12 0 1.6 3.2 0.00 1.91 1.75 93 1011.6
20260508002556 12 43 0.0 1.6 0.00 1.91 1.75 93 1011.5
20260508002056 12 0 0.0 3.2 0.00 1.91 1.75 93 1011.4
20260508001555 12 98 0.0 4.8 0.00 1.91 1.75 92 1011.2
20260508001056 12 84 1.6 4.8 0.00 1.91 1.75 93 1011.2
20260508000556 12 121 1.6 3.2 0.00 1.91 1.75 93 1011.2
20260508000055 12 86 0.0 3.2 0.00 1.91 1.75 93 1011.0
20260507235557 12 82 1.6 3.2 0.00 1.91 1.75 92 1010.7
20260507235130 12 71 1.6 3.2 0.00 1.91 1.75 92 1010.8
20260507234555 12 101 0.0 3.2 0.00 1.91 1.75 93 1010.8
20260507234056 12 110 0.0 8.0 0.00 1.91 1.75 92 1010.7
20260507233552 12 138 0.0 8.0 0.00 1.91 1.75 92 1010.5
20260507233054 12 96 4.8 8.0 0.00 1.91 1.75 92 1010.5
20260507232552 12 94 3.2 8.0 0.00 1.91 1.75 92 1010.3
20260507232054 12 71 3.2 6.4 0.00 1.91 1.75 92 1010.4
20260507231559 12 101 4.8 6.4 0.00 1.91 1.75 92 1010.4
20260507231055 12 51 1.6 8.0 0.00 1.91 1.75 92 1010.4
20260507230557 12 76 1.6 8.0 0.00 1.91 1.75 92 1010.3
20260507230056 12 40 4.8 8.0 0.00 1.91 1.75 91 1010.3
20260507225557 12 79 4.8 8.0 0.00 1.91 1.75 91 1010.2
20260507225100 12 74 3.2 9.7 0.00 1.91 1.75 91 1010.3
20260507224604 12 111 4.8 9.7 0.00 1.91 1.75 91 1010.4
20260507224057 12 57 3.2 9.7 0.00 1.91 1.75 92 1010.3
20260507223559 12 38 3.2 9.7 0.00 1.91 1.75 92 1010.2
20260507223059 12 81 1.6 8.0 0.00 1.91 1.75 92 1010.1
20260507222559 12 82 4.8 9.7 0.00 1.91 1.75 92 1010.1
20260507222057 12 75 4.8 9.7 0.00 1.91 1.75 92 1010.1
20260507221555 12 76 3.2 11.3 0.00 1.91 1.75 92 1010.1
20260507221055 12 15 4.8 11.3 0.00 1.91 1.75 91 1010.0
20260507220555 12 66 4.8 12.9 0.00 1.91 1.75 92 1010.0
20260507220058 12 65 4.8 12.9 0.03 1.91 1.75 91 1010.0
20260507215559 13 113 3.2 11.3 0.03 1.91 1.75 92 1010.1
20260507215056 13 47 4.8 11.3 0.03 1.91 1.75 92 1010.1
20260507214558 12 75 1.6 11.3 0.03 1.91 1.75 92 1010.2
20260507214057 12 42 6.4 11.3 0.03 1.91 1.75 92 1010.3
20260507213556 12 37 3.2 8.0 0.03 1.91 1.75 92 1010.3
20260507213058 12 52 3.2 8.0 0.03 1.91 1.75 92 1010.3
20260507212557 12 51 1.6 11.3 0.03 1.91 1.75 92 1010.3
20260507212056 12 81 3.2 12.9 0.03 1.91 1.75 92 1010.4
20260507211555 12 34 6.4 12.9 0.03 1.91 1.75 92 1010.3
20260507211055 12 74 4.8 12.9 0.03 1.91 1.75 92 1010.2
20260507210556 12 44 4.8 12.9 0.03 1.91 1.75 92 1010.1
20260507210119 12 78 3.2 12.9 0.00 1.88 1.73 92 1010.4
20260507205557 12 92 4.8 12.9 0.00 1.88 1.73 92 1010.3
20260507205056 12 54 1.6 12.9 0.00 1.88 1.73 92 1010.2
20260507204602 12 5 4.8 11.3 0.00 1.88 1.73 92 1010.2
20260507204102 12 51 4.8 11.3 0.00 1.88 1.73 92 1009.8
20260507203556 12 40 4.8 12.9 0.00 1.88 1.73 91 1010.1
20260507203104 12 51 6.4 20.9 0.00 1.88 1.73 91 1009.9
20260507202556 12 84 6.4 20.9 0.00 1.88 1.73 91 1009.8
20260507202058 13 99 8.0 20.9 0.00 1.88 1.73 91 1009.8
20260507201603 13 35 4.8 17.7 0.00 1.88 1.73 91 1009.9
20260507201059 13 46 9.7 16.1 0.00 1.88 1.73 91 1009.7
20260507200556 13 351 3.2 14.5 0.00 1.88 1.73 92 1009.9
20260507200105 13 62 4.8 16.1 0.00 1.88 1.73 92 1009.8
20260507195558 12 30 6.4 16.1 0.00 1.88 1.73 92 1009.9
20260507195056 12 46 4.8 16.1 0.00 1.88 1.73 92 1009.9
20260507194636 12 111 6.4 16.1 0.00 1.88 1.73 92 1009.8
20260507194100 12 56 3.2 16.1 0.00 1.88 1.73 92 1010.0
20260507193557 13 39 6.4 16.1 0.00 1.88 1.73 92 1009.9
20260507193118 13 25 4.8 17.7 0.00 1.88 1.73 92 1010.0
20260507192555 13 44 4.8 17.7 0.00 1.88 1.73 92 1009.9
20260507192100 12 55 8.0 17.7 0.00 1.88 1.73 92 1010.0
20260507191559 12 71 6.4 12.9 0.00 1.88 1.73 92 1010.1
20260507191100 12 25 3.2 19.3 0.03 1.88 1.73 92 1010.2
20260507190556 12 29 9.7 19.3 0.03 1.88 1.73 93 1010.0
20260507190056 12 63 6.4 16.1 0.05 1.88 1.73 92 1009.9
20260507185556 12 321 3.2 11.3 0.05 1.88 1.73 93 1010.1
20260507185056 12 103 3.2 11.3 0.05 1.88 1.73 92 1010.1
20260507184556 12 38 4.8 16.1 0.05 1.88 1.73 92 1010.2
20260507184100 12 52 3.2 16.1 0.05 1.88 1.73 93 1010.1
20260507183554 13 83 6.4 16.1 0.05 1.88 1.73 93 1009.9
20260507183102 12 35 6.4 16.1 0.05 1.88 1.73 92 1010.0
20260507182556 12 36 6.4 9.7 0.05 1.88 1.73 93 1010.0
20260507182053 13 352 4.8 16.1 0.05 1.88 1.73 93 1010.2
20260507181556 12 91 4.8 16.1 0.05 1.88 1.73 93 1010.0
20260507181056 12 43 11.3 16.1 0.03 1.85 1.70 93 1010.0
20260507180558 12 42 6.4 22.5 0.03 1.85 1.70 92 1010.0
20260507180056 12 71 6.4 22.5 0.00 1.83 1.68 92 1010.2
20260507175559 12 67 4.8 11.3 0.03 1.83 1.68 92 1010.3
20260507175056 12 44 6.4 17.7 0.03 1.83 1.68 92 1010.2
20260507174603 12 89 6.4 19.3 0.03 1.83 1.68 91 1010.1
20260507174057 12 89 6.4 19.3 0.03 1.83 1.68 92 1010.1
20260507173556 12 22 3.2 20.9 0.03 1.83 1.68 91 1010.2
20260507173132 12 45 8.0 22.5 0.03 1.83 1.68 91 1010.2
20260507172557 12 91 11.3 22.5 0.03 1.83 1.68 91 1010.4
20260507172055 12 79 8.0 19.3 0.03 1.83 1.68 91 1010.2
20260507171601 12 51 9.7 19.3 0.03 1.83 1.68 91 1009.8
20260507171056 13 360 8.0 17.7 0.03 1.83 1.68 92 1009.7
20260507170559 13 47 3.2 24.1 0.03 1.83 1.68 92 1009.6
20260507170055 13 16 11.3 24.1 0.03 1.83 1.68 92 1009.4
20260507165555 13 58 8.0 20.9 0.00 1.80 1.65 92 1009.3
20260507165056 13 84 9.7 29.0 0.03 1.80 1.65 92 1009.5
20260507164606 13 63 11.3 29.0 0.03 1.80 1.65 91 1009.6
20260507164057 13 60 9.7 29.0 0.03 1.80 1.65 91 1009.6
20260507163557 13 87 8.0 20.9 0.08 1.80 1.65 91 1010.1
20260507163056 14 71 9.7 24.1 0.13 1.80 1.65 90 1009.6
20260507162557 15 98 11.3 24.1 0.15 1.80 1.65 90 1009.4
20260507162058 16 88 12.9 24.1 0.15 1.80 1.65 89 1009.9
20260507161608 17 345 3.2 9.7 0.15 1.80 1.65 92 1009.9
20260507161057 17 49 1.6 8.0 0.18 1.80 1.65 93 1009.5
20260507160556 17 60 0.0 8.0 0.18 1.80 1.65 93 1009.7
20260507160114 17 72 6.4 8.0 0.20 1.80 1.65 92 1009.4
20260507155556 17 94 0.0 6.4 0.20 1.80 1.65 92 1009.7
20260507155055 17 65 0.0 11.3 0.20 1.78 1.63 92 1010.2
20260507154555 17 53 1.6 14.5 0.20 1.78 1.63 92 1010.1
20260507154056 17 84 8.0 14.5 0.23 1.78 1.63 92 1009.8
20260507153556 17 55 1.6 4.8 0.20 1.73 1.57 93 1010.1
20260507153056 18 0 0.0 3.2 0.15 1.68 1.52 94 1010.4
20260507152556 18 267 1.6 3.2 0.13 1.65 1.47 94 1010.0
20260507152057 18 360 1.6 3.2 0.15 1.65 1.47 93 1009.6
20260507151600 18 9 0.0 3.2 0.13 1.63 1.47 94 1009.3
20260507151101 18 5 0.0 3.2 0.13 1.63 1.47 94 1009.3
20260507150556 18 321 1.6 3.2 0.15 1.63 1.47 94 1009.6
20260507150054 18 0 0.0 3.2 0.13 1.60 1.45 94 1009.7
20260507145555 18 265 0.0 3.2 0.13 1.60 1.45 94 1009.8
20260507145055 18 286 0.0 3.2 0.13 1.57 1.42 94 1009.7
20260507144601 18 328 0.0 3.2 0.15 1.57 1.42 94 1009.6
20260507144056 18 287 0.0 3.2 0.13 1.55 1.40 94 1009.6
20260507143557 18 294 0.0 3.2 0.13 1.52 1.37 94 1009.3
20260507143104 18 292 0.0 3.2 0.15 1.52 1.37 94 1009.4
20260507142556 18 284 0.0 3.2 0.18 1.52 1.37 94 1009.4
20260507142057 18 0 0.0 3.2 0.18 1.47 1.32 95 1009.3
20260507141619 18 0 0.0 3.2 0.23 1.47 1.32 95 1009.3
20260507141056 18 63 1.6 3.2 0.25 1.47 1.32 94 1009.1
20260507140557 18 71 1.6 3.2 0.28 1.47 1.32 95 1009.2
20260507140109 18 82 0.0 3.2 0.33 1.47 1.32 95 1009.2
20260507135600 18 0 1.6 3.2 0.36 1.47 1.32 95 1009.4
20260507135056 18 352 0.0 3.2 0.36 1.45 1.30 95 1009.6
20260507134603 18 64 0.0 3.2 0.36 1.42 1.27 95 1009.8
20260507134056 18 284 0.0 3.2 0.43 1.42 1.27 95 1010.0
20260507133556 18 0 0.0 3.2 0.46 1.40 1.24 95 1010.1
20260507133056 17 0 0.0 3.2 0.43 1.37 1.22 95 1010.2
20260507132556 18 108 0.0 3.2 0.46 1.32 1.19 95 1010.5
20260507132056 17 0 0.0 3.2 0.41 1.30 1.14 95 1010.6
20260507131557 18 244 0.0 4.8 0.38 1.27 1.12 95 1010.7
20260507131057 17 0 1.6 4.8 0.36 1.24 1.09 95 1010.7
20260507130556 17 241 0.0 4.8 0.30 1.19 1.04 95 1010.6
20260507130056 17 11 0.0 3.2 0.25 1.14 0.99 95 1010.5
20260507125556 17 297 0.0 4.8 0.23 1.12 0.97 95 1010.3
20260507125056 17 265 0.0 4.8 0.20 1.09 0.94 95 1010.2
20260507124555 17 0 0.0 3.2 0.18 1.07 0.91 95 1010.1
20260507124057 17 0 0.0 3.2 0.13 0.99 0.84 95 1010.0
20260507123556 17 39 0.0 3.2 0.08 0.94 0.79 95 1010.1
20260507123055 17 0 0.0 3.2 0.08 0.94 0.79 95 1010.1
20260507122555 17 0 0.0 3.2 0.03 0.89 0.74 95 1010.1
20260507122055 17 0 0.0 3.2 0.03 0.89 0.74 95 1010.1
20260507121554 17 0 0.0 3.2 0.03 0.89 0.74 95 1010.1
20260507121057 17 0 0.0 3.2 0.03 0.89 0.74 95 1010.1
20260507120556 17 0 0.0 3.2 0.03 0.89 0.74 95 1010.0
20260507120059 17 0 0.0 3.2 0.05 0.89 0.74 95 1010.1
20260507115556 17 0 0.0 3.2 0.05 0.89 0.74 95 1010.0
20260507115055 17 193 0.0 3.2 0.05 0.89 0.74 95 1010.0
20260507114559 17 0 0.0 3.2 0.05 0.89 0.74 95 1010.1
20260507114056 17 0 0.0 3.2 0.03 0.86 0.71 95 1010.0
20260507113557 17 0 0.0 3.2 0.03 0.86 0.71 95 1009.8
20260507113055 17 107 1.6 3.2 0.03 0.86 0.71 95 1009.9
20260507112557 17 171 0.0 3.2 0.03 0.86 0.71 95 1010.2
20260507112056 17 257 0.0 3.2 0.03 0.86 0.71 95 1010.4
20260507111602 17 0 0.0 3.2 0.03 0.86 0.71 95 1010.3
20260507111058 17 0 0.0 3.2 0.05 0.86 0.71 95 1010.4
20260507110556 17 279 0.0 3.2 0.03 0.84 0.69 94 1010.4
20260507110056 17 0 0.0 3.2 0.03 0.84 0.69 94 1010.1
20260507105556 17 250 0.0 3.2 0.03 0.84 0.69 94 1010.1
20260507105056 17 250 0.0 3.2 0.03 0.84 0.69 94 1010.0
20260507104555 17 300 0.0 1.6 0.03 0.84 0.69 94 1010.2
20260507104056 17 328 1.6 1.6 0.05 0.84 0.69 94 1010.2
20260507103556 17 222 0.0 3.2 0.08 0.84 0.69 94 1010.1
20260507103054 17 219 0.0 3.2 0.08 0.84 0.69 94 1010.0
20260507102553 17 0 0.0 3.2 0.08 0.84 0.69 94 1009.9
20260507102056 17 175 0.0 3.2 0.08 0.84 0.69 94 1009.7
20260507101625 17 149 0.0 3.2 0.08 0.84 0.69 94 1009.8
20260507101058 17 307 1.6 3.2 0.05 0.81 0.66 94 1010.1
20260507100556 17 286 0.0 3.2 0.05 0.81 0.66 94 1010.2
20260507100055 17 0 0.0 3.2 0.05 0.81 0.66 94 1010.0
20260507095557 17 275 0.0 3.2 0.05 0.81 0.66 94 1009.8
20260507095056 17 140 1.6 3.2 0.05 0.81 0.66 94 1009.7
20260507094558 17 202 0.0 3.2 0.05 0.81 0.66 94 1010.0
20260507094056 17 240 0.0 3.2 0.03 0.79 0.64 94 1010.1
20260507093556 17 265 0.0 3.2 0.00 0.76 0.61 94 1010.1
20260507093100 17 0 0.0 3.2 0.03 0.76 0.61 94 1009.9
20260507092556 17 0 1.6 3.2 0.03 0.76 0.61 94 1009.9
20260507092100 17 244 0.0 1.6 0.05 0.76 0.61 94 1009.9
20260507091557 17 0 0.0 1.6 0.08 0.76 0.61 94 1010.0
20260507091056 17 0 0.0 3.2 0.08 0.76 0.61 94 1009.7
20260507090555 17 300 0.0 3.2 0.08 0.76 0.61 94 1009.8
20260507090111 17 266 0.0 3.2 0.08 0.76 0.61 94 1009.8
20260507085556 17 113 0.0 3.2 0.08 0.76 0.61 94 1009.6
20260507085058 17 96 0.0 4.8 0.08 0.76 0.61 94 1009.7
20260507084601 17 90 0.0 4.8 0.08 0.76 0.61 94 1009.9
20260507084055 17 0 1.6 4.8 0.10 0.76 0.61 94 1010.0
20260507083556 17 299 0.0 4.8 0.13 0.76 0.61 94 1010.2
20260507083056 17 185 0.0 4.8 0.10 0.74 0.58 94 1010.2
20260507082600 17 262 0.0 3.2 0.08 0.71 0.56 94 1010.4
20260507082056 17 0 0.0 3.2 0.08 0.71 0.56 94 1010.4
20260507081556 17 0 0.0 3.2 0.08 0.69 0.53 94 1010.5
20260507081056 17 0 0.0 3.2 0.08 0.69 0.53 94 1010.4
20260507080556 17 0 0.0 3.2 0.08 0.69 0.53 94 1010.2
20260507080055 17 244 0.0 3.2 0.08 0.69 0.53 94 1010.2
20260507075557 17 0 0.0 3.2 0.08 0.69 0.53 94 1010.1
20260507075056 17 244 0.0 3.2 0.08 0.69 0.53 94 1010.1
20260507074557 17 294 1.6 3.2 0.08 0.69 0.53 94 1010.4
20260507074055 17 10 0.0 4.8 0.05 0.66 0.51 94 1010.4
20260507073555 17 0 0.0 4.8 0.03 0.64 0.48 94 1010.5
20260507073055 17 218 1.6 4.8 0.03 0.64 0.48 94 1010.5
20260507072556 17 263 1.6 4.8 0.03 0.64 0.48 94 1010.5
20260507072056 17 243 0.0 3.2 0.08 0.64 0.48 94 1010.4
20260507071556 17 0 0.0 3.2 0.08 0.61 0.46 94 1010.2
20260507071055 17 212 0.0 3.2 0.08 0.61 0.46 94 1010.3
20260507070556 17 0 1.6 3.2 0.10 0.61 0.46 94 1010.5
20260507070056 17 239 0.0 3.2 0.15 0.61 0.46 94 1010.6
20260507065556 17 150 1.6 4.8 0.20 0.61 0.46 93 1010.5
20260507065056 17 158 0.0 4.8 0.25 0.61 0.46 93 1010.8
20260507064613 17 246 1.6 3.2 0.28 0.61 0.46 94 1011.0
20260507064056 17 250 0.0 3.2 0.33 0.61 0.46 93 1010.8
20260507063556 17 202 0.0 6.4 0.36 0.61 0.46 93 1011.2
20260507063058 17 229 1.6 6.4 0.36 0.61 0.46 93 1011.8
20260507062555 17 234 1.6 6.4 0.36 0.61 0.46 94 1011.9
20260507062056 17 247 3.2 11.3 0.30 0.56 0.41 94 1011.9
20260507061600 17 333 1.6 11.3 0.28 0.53 0.38 94 1012.0
20260507061055 17 288 3.2 11.3 0.28 0.53 0.38 94 1012.0
20260507060556 17 311 3.2 11.3 0.25 0.51 0.36 94 1011.9
20260507060058 17 255 0.0 3.2 0.20 0.46 0.30 94 1011.5
20260507055556 17 275 0.0 3.2 0.15 0.41 0.25 93 1011.5
20260507055057 17 310 0.0 3.2 0.10 0.36 0.20 93 1011.8
20260507054608 17 297 1.6 3.2 0.08 0.33 0.18 93 1011.9
20260507054056 17 201 0.0 3.2 0.03 0.28 0.13 93 1011.8
20260507053556 17 254 0.0 3.2 0.00 0.25 0.10 93 1011.9
20260507053059 17 0 0.0 3.2 0.03 0.25 0.10 93 1011.8
20260507052556 17 306 0.0 3.2 0.03 0.25 0.10 93 1011.9
20260507052056 17 0 1.6 3.2 0.03 0.25 0.10 93 1011.7
20260507051600 17 192 0.0 4.8 0.03 0.25 0.10 93 1011.9
20260507051055 17 0 1.6 4.8 0.03 0.25 0.10 93 1011.6
20260507050555 17 0 0.0 4.8 0.05 0.25 0.10 93 1012.2
20260507045559 18 263 0.0 3.2 0.13 0.25 0.10 92 1012.2
20260507045055 18 269 1.6 3.2 0.15 0.25 0.10 92 1012.0